Location: Broekland
(52.3610°N, 6.2005°E)
Time: 20:26:11
(UTC+00:00)

SL-14 R/B - Pass Details

Date: 19 May 2025
Orbit: 500 x 530 km, 82.4° (Epoch: 20 June)

Event Time Altitude Azimuth Distance (km) Brightness Sun altitude
Exits shadow 23:53:55 30° 139° (SE) 949 4.1 -17.5°
Maximum altitude 23:55:12 41° 94° (E) 770 4.0 -17.5°
Drops below altitude 10° 23:58:52 10° 24° (NNE) 1,773 7.1 -17.4°
Sets 00:01:06 0° 17° (NNE) 2,672 8.5 -17.4°
